Theta_e
322 320 318 320 321 321 321 322 323 323 322 325 326 327 328 327 327 327 329 331 331 331 331 331 331 331 331 328 326 324 322 323 322 320 319 319 318 319 318 319 319 320 319 319
322 322 321 321 321 321 322 323 324 323 323 324 326 326 327 328 328 329 331 331 331 331 332 331 330 328 326 324 323 321 321 321 320 319 320 320 321 320 320 319 319 319 318 319
322 322 320 321 321 322 323 323 323 323 322 324 325 327 328 328 329 330 330 331 331 331 332 331 328 325 322 321 320 320 320 320 320 321 318 318 318 317 317 318 318 317 317 317
322 320 321 322 322 322 324 321 321 322 324 325 324 322 329 329 330 330 331 331 331 331 330 327 324 321 319 319 318 319 320 320 318 320 318 318 318 316 316 315 314 314 314 314
323 321 321 322 322 321 324 321 322 323 325 325 324 324 330 329 330 331 331 330 329 327 325 323 320 319 318 318 318 318 319 319 318 318 317 316 315 314 313 313 313 313 312 312
323 322 322 323 321 321 321 323 325 326 325 326 324 322 325 328 328 330 330 328 326 324 323 321 318 318 318 318 318 318 317 316 315 315 314 315 315 315 314 313 313 312 311 310
324 324 322 322 323 322 324 326 327 327 327 326 323 322 322 324 324 327 328 327 324 323 322 320 319 319 318 318 318 316 315 314 313 313 312 312 313 314 313 312 311 311 311 311
326 327 324 323 323 325 324 324 325 326 325 324 323 322 326 322 322 324 325 325 324 323 321 320 319 318 318 317 316 315 314 313 312 312 311 311 311 311 310 310 311 309 310 310
326 327 323 321 322 322 325 325 323 325 326 325 323 323 322 322 323 323 323 323 323 322 321 320 319 319 318 317 315 314 313 312 312 311 310 310 310 309 309 310 309 310 310 311
326 327 323 322 321 320 323 322 326 326 328 325 322 322 321 323 323 323 323 322 323 322 321 320 319 318 317 316 315 313 313 312 311 310 309 309 309 308 309 309 310 310 310 310
325 327 326 322 323 325 324 323 322 322 322 323 322 322 322 324 322 321 320 321 322 322 321 320 318 317 315 315 314 313 313 311 310 309 308 308 309 309 308 308 308 308 307 309
326 329 330 325 319 319 321 322 322 324 325 323 324 324 321 321 319 321 321 320 320 319 319 318 316 315 315 315 314 313 312 310 309 308 308 308 309 308 308 308 306 305 305 306
325 329 331 327 323 321 322 321 321 320 321 321 323 322 319 320 320 320 320 320 319 319 318 317 316 315 314 314 314 312 311 309 308 308 307 308 309 307 306 307 305 304 304 304
322 327 326 328 326 322 322 320 320 321 326 323 320 318 318 320 320 320 320 319 318 317 316 316 316 314 314 314 313 311 310 308 307 308 308 309 306 305 305 304 304 304 303 303
326 328 325 324 321 320 320 319 319 321 321 322 319 318 320 320 320 319 318 317 316 316 316 315 315 314 313 313 311 309 307 307 307 308 308 306 304 304 304 304 303 302 302 302
324 328 324 324 321 320 319 318 320 320 319 319 319 320 321 320 319 318 317 316 316 315 315 315 315 313 312 311 308 307 306 305 306 305 305 304 303 304 304 305 304 302 302 303
325 326 325 325 318 318 322 321 319 318 319 321 322 322 320 319 317 317 316 316 316 315 314 312 312 310 309 308 306 305 304 304 305 305 304 303 303 304 305 305 305 306 306 306
324 325 323 325 320 329 321 318 319 320 320 320 320 320 318 317 316 315 316 317 315 313 310 309 306 305 305 305 304 304 304 304 303 303 303 303 305 306 305 306 306 306 306 306
321 323 326 329 331 323 321 321 321 321 320 320 319 318 315 315 315 315 316 314 312 310 307 304 302 301 303 303 303 302 305 302 303 303 305 305 305 306 306 306 306 307 307 306
319 321 325 323 328 324 324 320 318 319 321 318 317 316 316 316 318 317 314 311 309 305 303 304 302 301 301 302 302 305 302 303 304 305 305 305 306 306 306 307 306 307 306 306
323 322 323 325 327 323 321 319 318 321 323 318 316 316 316 318 317 315 312 309 305 303 303 303 302 301 301 301 303 302 303 304 305 305 304 305 305 305 306 306 306 306 306 307
323 325 324 324 324 324 319 319 320 319 316 315 316 316 318 317 315 312 309 307 303 303 303 302 301 301 303 302 302 303 305 305 305 305 305 305 305 304 305 306 307 306 307 306
324 324 327 323 323 322 318 316 315 315 315 316 317 317 315 314 312 309 308 305 303 303 302 302 302 303 302 303 305 305 304 305 305 305 305 305 304 305 305 305 305 306 306 306
318 318 320 318 316 314 314 313 314 315 316 316 315 313 312 311 309 308 306 304 303 303 302 302 303 303 304 304 304 303 304 304 305 304 304 304 304 305 305 305 305 304 305 305
315 313 313 312 312 313 314 315 316 316 315 313 312 311 309 308 307 304 306 303 302 302 303 303 303 303 303 304 303 304 304 304 304 304 304 303 303 304 305 303 304 304 302 302
312 313 315 315 314 314 315 316 314 314 313 311 309 308 306 304 304 304 303 302 302 303 303 302 304 302 302 303 304 304 304 304 304 304 304 303 303 302 304 305 303 301 301 301
Wind_Speed
5 9 12 16 8 6 5 5 8 6 3 2 1 1 4 4 2 7 10 12 13 11 12 12 8 5 3 5 7 11 13 14 16 17 19 20 21 22 21 21 20 21 21 22
9 3 4 1 5 7 7 7 4 4 3 6 4 3 1 3 1 5 10 12 13 12 12 10 7 4 3 5 8 10 11 13 15 15 16 17 19 21 21 21 21 24 24 27
7 8 5 7 8 8 3 5 3 5 4 5 6 11 7 3 5 5 9 11 13 13 11 8 6 2 2 5 7 8 10 12 14 14 17 18 20 23 24 23 27 25 26 30
4 5 6 7 5 6 7 2 2 3 6 8 6 8 10 8 8 10 11 12 12 10 8 7 6 2 2 3 4 7 10 12 14 14 16 18 22 24 24 28 28 29 31 32
6 5 6 7 3 3 6 2 4 6 11 8 12 7 9 9 10 12 13 14 11 10 9 7 4 1 2 3 6 9 11 13 15 17 19 23 27 28 30 30 31 30 32 29
5 1 3 5 3 1 6 6 9 9 8 11 3 5 9 9 13 13 14 14 12 10 7 4 2 1 2 4 7 9 11 14 18 22 25 27 28 29 29 32 31 30 29 32
2 3 4 2 6 5 7 8 8 7 7 5 5 6 7 1 1 11 15 14 11 7 7 6 6 5 4 7 8 11 14 19 21 24 26 27 28 28 31 31 30 25 30 30
5 5 3 2 4 6 4 5 6 10 10 10 9 6 4 4 5 1 4 11 8 7 7 6 4 6 8 7 10 14 18 22 24 26 28 27 27 27 29 28 27 29 28 28
4 3 5 4 1 4 5 5 6 9 11 9 6 3 8 6 6 4 4 3 7 7 6 6 7 8 8 10 13 15 19 24 26 29 28 27 26 25 26 25 26 25 27 25
1 8 4 5 2 4 5 3 6 5 6 9 3 4 5 6 2 4 5 4 6 5 6 7 8 9 10 12 15 16 21 25 28 29 27 26 25 25 22 22 23 26 25 23
3 4 6 5 2 6 4 5 3 5 5 8 9 2 7 7 6 9 10 8 7 5 8 8 11 14 15 17 18 20 24 27 29 30 28 25 25 21 20 19 21 21 22 15
2 4 6 4 2 2 3 3 3 4 4 4 6 7 7 6 8 7 6 3 5 8 11 13 17 20 20 19 20 23 25 27 30 30 25 23 20 22 22 17 18 18 16 14
1 3 6 7 6 4 6 3 2 3 4 10 9 3 3 4 8 6 8 9 8 10 13 15 19 22 22 21 17 21 25 27 30 25 22 21 18 18 15 14 14 13 12 11
4 4 10 10 9 4 5 6 6 6 5 10 9 12 9 11 6 5 7 10 13 14 15 15 17 22 22 15 16 21 26 29 25 20 20 13 13 13 12 11 11 9 8 9
3 8 5 7 6 8 11 10 9 11 11 8 10 9 9 9 8 9 12 15 17 18 18 17 17 22 24 20 18 22 26 23 21 21 12 11 11 10 10 10 9 8 9 8
1 5 7 11 7 11 13 11 9 10 10 9 11 11 6 7 7 13 16 20 19 18 19 20 21 26 24 16 19 22 19 16 18 12 11 8 7 7 7 8 8 8 8 8
3 3 5 10 2 8 10 5 4 3 4 7 8 10 10 10 14 16 20 17 15 19 21 20 21 24 24 21 19 18 14 14 12 9 8 5 5 8 8 7 9 9 10 10
3 4 4 5 5 5 5 2 4 6 4 4 7 9 8 14 16 19 13 15 18 20 20 21 26 24 22 17 17 14 10 10 8 6 4 5 8 11 9 6 6 8 8 9
5 6 3 3 3 8 7 2 2 6 9 6 5 9 15 16 16 8 14 17 18 19 25 25 23 23 19 16 13 10 6 6 3 4 6 10 11 11 11 10 10 10 9 8
5 5 5 4 3 5 8 4 2 3 6 6 9 14 16 16 12 13 18 18 20 21 20 24 21 18 18 15 13 7 6 2 5 9 11 10 8 8 9 9 10 9 7 9
5 5 9 7 4 4 4 2 3 5 5 11 12 13 13 11 11 14 16 18 19 16 19 20 19 17 15 13 7 7 4 7 7 6 8 8 7 10 10 10 8 9 10 11
3 3 4 3 4 4 3 3 5 9 10 12 11 12 11 13 15 15 16 15 15 17 18 17 15 18 11 8 10 6 3 6 5 5 5 9 10 13 12 12 12 7 11 13
2 3 2 2 3 4 3 5 6 8 10 9 11 11 10 13 14 15 14 12 13 15 15 14 13 10 13 9 7 9 9 9 10 11 10 11 11 11 11 10 10 10 13 13
3 0 3 2 4 1 4 5 6 7 8 8 7 9 12 14 14 13 11 11 12 13 12 10 8 10 7 8 10 12 11 10 9 10 12 10 11 12 14 12 14 15 16 16
4 1 2 5 4 5 4 6 7 5 5 7 9 11 12 13 13 11 9 10 12 10 8 6 7 6 10 9 11 10 9 7 9 10 9 10 10 9 12 17 15 15 18 19
2 1 2 1 5 5 5 5 6 7 8 9 11 12 13 14 10 13 11 11 9 5 5 7 4 10 7 7 8 8 7 8 8 8 11 13 12 10 10 8 12 17 18 18
Wind_Direction
197 229 216 222 233 325 249 238 178 109 91 230 322 278 20 18 118 181 188 173 182 161 151 148 134 125 103 46 25 14 9 7 359 349 344 338 332 327 323 321 319 325 324 326
205 212 69 85 201 198 203 197 161 130 122 273 211 238 63 50 111 184 179 179 170 164 165 149 150 129 75 31 13 11 8 356 349 339 330 324 317 316 313 310 310 314 314 318
304 94 141 183 169 180 201 275 164 322 157 238 229 225 203 131 146 166 181 178 178 179 162 165 161 129 18 19 16 8 350 337 330 324 321 316 312 309 309 309 309 306 309 308
53 123 178 190 175 273 214 127 228 224 248 292 202 289 180 176 174 184 179 184 177 161 168 167 178 175 76 32 10 345 331 321 324 318 316 315 306 306 312 303 306 307 304 305
87 162 186 229 30 276 47 171 265 277 274 296 204 247 117 173 202 194 190 188 173 181 181 181 189 127 60 9 342 327 322 321 321 316 312 310 307 308 306 306 306 305 300 300
78 89 298 17 104 331 138 227 237 253 261 248 105 268 186 177 224 192 193 190 188 190 192 200 181 189 313 306 315 321 319 318 319 317 312 308 305 303 305 307 302 301 313 309
178 121 120 261 204 180 230 258 285 256 213 289 107 265 292 260 225 202 194 193 193 198 209 218 227 251 288 302 315 314 322 322 325 322 318 313 308 304 302 305 308 310 307 308
271 196 189 18 325 342 328 318 295 303 303 314 159 258 91 26 71 24 287 188 186 213 223 242 260 278 294 304 308 321 325 328 329 327 323 318 312 310 306 304 305 309 305 307
263 217 126 55 284 303 117 261 15 287 253 266 269 115 164 128 123 132 125 178 214 225 241 252 266 275 286 305 317 326 330 328 330 328 323 317 314 315 307 306 306 302 306 310
353 266 200 131 244 92 307 28 258 233 289 300 266 250 317 97 95 145 192 239 232 245 260 264 277 286 297 307 317 325 328 329 328 325 320 315 317 312 310 316 320 318 312 316
271 255 143 191 230 334 223 238 239 301 287 289 299 17 52 54 37 355 333 353 343 295 282 289 298 308 312 310 313 322 327 326 325 323 319 314 314 313 316 318 320 321 325 324
47 296 267 344 38 274 292 312 280 276 266 276 303 281 70 38 355 342 344 343 340 319 315 316 315 311 300 299 308 320 323 323 324 321 319 314 316 318 322 321 326 327 332 331
108 224 257 195 184 181 249 188 279 288 274 271 283 297 103 18 340 342 329 325 307 307 309 311 307 314 310 308 315 321 318 324 322 325 318 313 320 333 333 327 331 334 336 340
290 263 269 271 349 343 243 230 252 262 274 274 278 306 348 5 345 313 304 320 314 314 308 311 317 315 316 321 334 315 324 323 324 315 320 343 348 343 332 328 332 341 353 358
304 265 273 280 287 281 281 284 250 250 258 273 294 304 332 352 342 334 321 317 323 321 325 323 320 324 319 331 329 324 322 328 323 322 346 343 338 343 344 342 351 357 352 349
203 257 278 273 261 277 281 272 257 260 273 272 280 283 39 339 308 321 326 328 321 333 329 329 324 324 330 322 317 319 332 328 331 351 343 351 356 346 349 7 11 354 348 322
260 251 267 284 336 291 269 276 235 236 251 299 297 358 339 332 336 329 321 318 340 332 332 327 323 318 322 312 329 325 330 323 326 347 355 4 336 333 347 338 332 355 357 357
228 237 264 287 283 259 78 69 320 305 320 294 302 338 340 332 335 319 14 354 337 332 330 322 325 323 323 321 323 332 324 338 352 3 18 340 338 346 343 347 356 10 26 25
239 227 239 245 236 271 166 123 16 357 322 42 355 339 333 329 321 309 17 350 339 335 337 330 326 326 319 318 338 316 352 14 31 19 0 351 353 4 1 15 19 20 26 29
190 237 186 232 255 288 71 117 27 299 278 39 344 330 328 327 318 338 352 340 336 343 332 336 333 332 331 344 329 340 49 89 41 357 353 360 16 10 20 32 27 16 32 30
173 206 223 219 255 299 80 148 261 268 12 340 332 324 322 323 334 326 340 335 351 335 334 334 340 331 320 333 349 72 100 29 350 8 6 4 27 24 14 4 13 18 25 23
237 205 198 227 255 262 94 176 300 360 327 321 327 321 329 327 325 334 333 346 345 336 338 340 336 338 19 69 90 92 51 11 18 48 41 29 23 22 19 23 26 34 26 22
240 333 338 287 21 64 17 341 2 322 310 323 328 340 329 319 328 329 336 346 337 335 338 342 346 47 74 92 60 45 40 25 35 63 36 32 25 16 10 21 33 23 24 19
151 41 255 304 83 352 324 329 334 342 339 347 340 330 330 326 327 330 331 342 337 336 341 349 59 67 76 57 51 46 39 32 46 38 34 31 26 27 33 26 24 31 26 22
37 245 309 271 292 303 147 21 351 347 345 334 335 333 327 326 329 332 332 328 325 333 355 84 92 87 70 67 60 47 38 31 34 32 28 15 15 38 58 48 46 52 47 39
165 2 245 339 18 313 21 9 5 347 347 344 332 328 338 336 330 333 327 319 322 343 92 118 112 85 80 71 52 37 18 13 5 4 12 13 358 1 52 79 80 61 49 43